Theta_e
287 286 287 286 286 287 287 288 291 294 295 294 295 295 297 296 297 297 295 295 295 294
287 287 287 286 286 287 287 290 291 291 292 292 292 293 295 295 294 296 296 296 296 295
287 287 287 287 286 287 287 288 289 290 290 291 290 291 291 292 293 294 292 295 294 295
287 287 287 287 287 287 287 288 288 289 290 291 292 290 289 290 290 289 291 293 292 292
287 287 286 287 287 288 287 288 288 288 288 291 293 293 292 290 291 291 291 292 291 293
286 286 286 287 288 288 287 287 288 288 288 289 292 294 291 292 291 289 290 289 289 291
286 287 287 287 288 288 287 287 287 288 288 291 293 293 289 289 290 288 288 289 290 292
286 287 288 288 288 288 287 287 287 288 288 289 293 293 289 287 287 286 286 287 289 291
287 287 287 288 288 288 287 287 287 287 287 288 292 298 296 290 286 286 285 285 286 288
287 286 286 287 288 287 287 286 286 286 286 287 288 300 297 295 287 286 285 285 285 288
287 286 286 286 286 286 286 286 286 286 286 286 289 299 298 295 287 285 285 285 285 289
287 285 285 284 285 286 285 285 286 286 286 286 286 297 297 292 287 287 285 286 286 290
287 286 284 284 284 285 285 286 287 286 285 290 285 294 296 293 288 285 285 285 286 292
287 286 285 283 284 284 284 285 284 285 285 285 287 288 296 296 288 287 285 285 285 287
Wind_Speed
6 4 4 4 5 5 4 6 7 9 10 11 11 11 11 8 8 5 4 5 2 2
6 6 5 7 5 4 5 6 8 8 8 7 8 9 10 8 10 8 7 7 5 3
6 6 6 5 7 7 6 7 7 8 9 8 6 7 9 7 9 8 6 6 8 5
6 6 6 5 6 6 6 6 7 8 8 8 7 5 6 7 8 7 7 7 7 6
6 6 6 6 6 6 7 6 6 6 7 9 9 6 5 7 10 10 10 10 10 9
6 6 6 6 6 6 6 7 7 6 7 8 10 7 4 2 6 6 7 7 8 10
6 6 6 6 6 6 6 6 7 7 6 6 9 4 6 6 6 6 6 6 6 9
6 6 6 7 7 6 6 5 6 8 9 9 8 3 4 5 5 6 7 7 6 8
6 5 6 6 7 6 6 6 5 6 7 9 8 14 14 7 5 5 5 6 7 5
6 6 5 6 6 7 7 5 6 6 6 8 10 16 14 11 4 4 4 5 6 6
5 6 6 6 6 6 5 6 5 6 6 6 8 19 14 12 5 5 5 4 5 5
5 5 6 6 6 5 5 5 5 4 7 6 7 18 16 9 5 4 6 6 7 6
4 4 5 4 5 4 3 4 4 6 6 10 7 14 15 9 3 4 4 6 6 12
4 3 1 2 3 4 4 5 5 6 6 6 7 8 16 15 3 2 3 4 4 5
Wind_Direction
328 327 317 310 321 330 328 322 329 341 355 359 0 355 2 8 357 355 354 350 334 342
340 346 336 329 326 324 324 336 349 346 344 340 2 359 2 8 8 13 6 5 328 317
337 344 338 335 339 338 332 339 338 348 350 340 349 17 11 8 1 9 7 4 3 11
341 342 339 347 334 336 331 343 344 344 346 349 338 3 22 9 12 -0 1 0 3 357
348 343 350 348 339 338 339 339 338 341 344 347 347 337 31 13 25 11 7 6 1 356
348 348 344 342 339 342 337 339 339 349 344 346 344 333 1 30 10 11 5 1 357 353
341 338 337 334 344 344 335 337 340 338 329 334 332 334 20 3 5 4 353 352 350 349
335 342 341 343 341 339 340 320 332 339 346 338 336 61 60 22 15 7 355 352 353 359
342 344 347 340 338 340 339 333 321 329 333 337 344 40 44 45 18 8 359 346 343 336
343 350 345 338 343 340 337 340 340 338 331 335 335 15 40 43 16 17 354 346 335 342
347 341 353 348 345 339 334 344 338 344 350 343 343 358 23 30 9 4 348 335 333 317
338 349 8 353 343 340 346 345 347 347 355 357 343 354 14 34 358 352 334 330 325 326
329 9 14 357 344 334 344 342 354 351 355 358 335 342 15 35 349 348 333 328 322 340
335 333 43 349 347 2 5 2 3 348 337 329 328 325 6 8 348 278 330 321 316 316